AC4VM Weather Reports


Display with metric or nautical units.
time (UTC)temp
F
wind
direction
speed
MPH
gust
MPH
rain 1hr
in
rain 24hr
in
rain mn
in
humidity
%
barometer
mb
20260905104504 73 291 1.0 3.0 0.00 0.00 0.00 94 1011.5
20260905103006 72 291 0.0 3.0 0.00 0.00 0.00 94 1011.5
20260905101502 73 291 1.0 3.0 0.00 0.00 0.00 94 1011.1
20260905100002 73 291 0.0 0.0 0.00 0.00 0.00 95 1011.0
20260905094502 73 291 0.0 0.0 0.00 0.00 0.00 95 1011.0
20260905093102 73 291 0.0 0.0 0.00 0.00 0.00 95 1010.7
20260905091618 73 291 0.0 0.0 0.00 0.00 0.00 94 1010.9
20260905090058 73 291 0.0 0.0 0.00 0.00 0.00 94 1010.9
20260905084615 73 291 0.0 0.0 0.00 0.00 0.00 94 1010.9
20260905083054 73 291 0.0 0.0 0.00 0.00 0.00 94 1011.0
20260905081557 73 291 0.0 0.0 0.00 0.00 0.00 94 1011.2
20260905080053 73 290 0.0 0.0 0.00 0.00 0.00 94 1011.2
20260905074555 74 291 0.0 0.0 0.00 0.00 0.00 94 1011.4
20260905073049 74 290 0.0 0.0 0.00 0.00 0.00 93 1011.7
20260905071548 74 290 0.0 0.0 0.00 0.00 0.00 93 1011.6
20260905070046 74 290 0.0 0.0 0.00 0.00 0.00 93 1011.7
20260905064545 74 290 0.0 0.0 0.00 0.00 0.00 93 1011.8
20260905063049 74 290 0.0 0.0 0.00 0.00 0.00 93 1011.9
20260905061547 75 290 0.0 0.0 0.00 0.00 0.00 93 1011.9
20260905060042 75 290 0.0 0.0 0.00 0.00 0.00 92 1011.8
20260905054541 75 290 0.0 2.0 0.00 0.00 0.00 92 1011.8
20260905053039 75 290 0.0 1.0 0.00 0.00 0.00 91 1011.9
20260905051540 75 290 0.0 1.0 0.00 0.00 0.00 92 1011.7
20260905050037 76 290 0.0 1.0 0.00 0.00 0.00 91 1011.9
20260905044536 76 290 1.0 2.0 0.00 0.00 0.00 90 1011.8
20260905043033 77 290 0.0 2.0 0.00 0.00 0.00 90 1011.9
20260905041531 76 290 0.0 1.0 0.00 0.00 0.00 90 1011.7
20260905040029 77 290 0.0 2.0 0.00 0.00 0.00 90 1011.6
20260905034530 77 290 0.0 2.0 0.00 0.00 0.00 89 1011.6
20260905033028 78 290 0.0 1.0 0.00 0.00 0.00 88 1011.9
20260905031533 78 290 0.0 2.0 0.00 0.00 0.00 87 1011.8
20260905030032 78 290 0.0 0.0 0.00 0.00 0.00 88 1012.0
20260905024527 78 290 1.0 3.0 0.00 0.00 0.00 88 1012.1
20260905023031 79 290 0.0 1.0 0.00 0.00 0.00 86 1012.0
20260905021525 79 289 0.0 1.0 0.00 0.00 0.00 86 1012.3
20260905020025 79 289 1.0 2.0 0.00 0.00 0.00 84 1012.2
20260905014524 80 289 0.0 1.0 0.00 0.00 0.00 84 1012.3
20260905013022 81 289 0.0 2.0 0.00 0.00 0.00 81 1012.2
20260905011521 82 289 0.0 2.0 0.00 0.00 0.00 80 1011.9
20260905010021 82 289 0.0 1.0 0.00 0.00 0.00 79 1012.0
20260905004521 83 289 0.0 1.0 0.00 0.00 0.00 76 1012.0
20260905003020 84 289 0.0 0.0 0.00 0.00 0.00 73 1012.1
20260905001520 85 289 0.0 2.0 0.00 0.00 0.00 72 1012.0
20260905000019 88 289 0.0 1.0 0.00 0.00 0.00 66 1012.0
20260904234534 88 280 1.0 3.0 0.00 0.00 0.00 64 1012.1
20260904233018 90 343 0.0 2.0 0.00 0.00 0.00 60 1011.7
20260904231518 91 331 1.0 3.0 0.00 0.00 0.00 58 1011.4
20260904230017 91 285 2.0 4.0 0.00 0.00 0.00 59 1011.1
20260904224528 92 341 2.0 7.0 0.00 0.00 0.00 55 1011.0
20260904223016 93 337 1.0 6.0 0.00 0.00 0.00 53 1010.9
20260904221515 94 33 3.0 6.0 0.00 0.00 0.00 51 1010.8
20260904220014 95 332 6.0 10.0 0.00 0.00 0.00 51 1010.9
20260904214533 94 14 1.0 3.0 0.00 0.00 0.00 50 1010.9
20260904213012 94 335 0.0 2.0 0.00 0.00 0.00 49 1011.0
20260904211513 94 359 2.0 5.0 0.00 0.00 0.00 48 1011.1
20260904210010 94 94 2.0 5.0 0.00 0.00 0.00 49 1011.2
20260904204509 95 44 3.0 8.0 0.00 0.00 0.00 50 1011.3
20260904203006 94 74 1.0 6.0 0.00 0.00 0.00 51 1011.5
20260904201503 96 264 1.0 6.0 0.00 0.00 0.00 49 1011.8
20260904200001 95 241 1.0 4.0 0.00 0.00 0.00 53 1012.0
20260904194604 94 100 0.0 5.0 0.00 0.00 0.00 52 1012.3
20260904193057 93 244 3.0 5.0 0.00 0.00 0.00 54 1012.7
20260904191555 93 308 2.0 4.0 0.00 0.00 0.00 55 1013.0
20260904190056 93 284 2.0 8.0 0.00 0.00 0.00 53 1013.1
20260904184603 94 286 4.0 7.0 0.00 0.00 0.00 53 1013.3
20260904183051 93 327 2.0 4.0 0.00 0.00 0.00 55 1013.5
20260904181544 93 145 2.0 7.0 0.00 0.00 0.00 56 1013.7
20260904180055 93 132 2.0 5.0 0.00 0.00 0.00 58 1013.7
20260904174542 93 214 2.0 5.0 0.00 0.00 0.00 58 1013.9
20260904173045 92 33 3.0 5.0 0.00 0.00 0.00 59 1014.3
20260904171538 92 149 3.0 7.0 0.00 0.00 0.00 60 1014.6
20260904170035 92 88 2.0 9.0 0.00 0.00 0.00 61 1014.5
20260904164534 91 85 3.0 6.0 0.00 0.00 0.00 64 1014.8
20260904163032 90 102 3.0 7.0 0.00 0.00 0.00 64 1014.9
20260904161530 90 75 2.0 6.0 0.00 0.00 0.00 64 1015.0
20260904160039 89 87 1.0 3.0 0.00 0.00 0.00 68 1015.1
20260904154527 88 81 4.0 7.0 0.00 0.00 0.00 67 1015.1
20260904153029 89 220 1.0 7.0 0.00 0.00 0.00 67 1015.1
20260904151524 87 96 1.0 4.0 0.00 0.00 0.00 69 1015.2
20260904150022 87 211 1.0 5.0 0.00 0.00 0.00 70 1015.2
20260904144519 86 204 0.0 4.0 0.00 0.00 0.00 72 1015.3
20260904143018 85 244 1.0 3.0 0.00 0.00 0.00 75 1015.1
20260904141515 85 255 2.0 3.0 0.00 0.00 0.00 74 1015.2
20260904140012 83 52 2.0 6.0 0.00 0.00 0.00 76 1015.3
20260904134509 82 76 2.0 4.0 0.00 0.00 0.00 78 1015.3
20260904133007 81 79 1.0 4.0 0.00 0.00 0.00 80 1015.0
20260904131502 80 116 1.0 3.0 0.00 0.00 0.00 82 1015.1
20260904130059 79 94 0.0 2.0 0.00 0.00 0.00 87 1015.1
20260904124557 77 26 0.0 2.0 0.00 0.00 0.00 88 1015.2
20260904123106 75 276 0.0 1.0 0.00 0.00 0.00 91 1015.0
20260904121551 73 276 0.0 1.0 0.00 0.00 0.00 93 1014.9
20260904120049 72 276 0.0 0.0 0.00 0.00 0.00 94 1014.7
20260904114550 71 276 0.0 0.0 0.00 0.00 0.00 94 1014.7
20260904113049 70 276 0.0 2.0 0.00 0.00 0.00 94 1014.7
20260904111553 71 276 0.0 1.0 0.00 0.00 0.00 94 1014.4
20260904110145 71 276 0.0 0.0 0.00 0.00 0.00 94 1014.2